COSMOS 2251 DEB, 33920

Orbit data source: Space-Track

COSMOS 2251 DEB, 33920 is space debris in LEO originally from a launch on Wed, 16 Jun 1993 UTC launched from the Plesetsk Missile And Space Complex (PKMTR). The debris from Iridium 33, an American commercial communications satellite, has been tracked extensively since its accidental collision with the defunct Russian satellite Cosmos 2251 in 2009. This event, occurring at high speed in low Earth orbit (LEO), generated thousands of pieces of space debris, significantly increasing the risk of further collisions. The Iridium 33 debris cloud has impacted space traffic management and orbital debris mitigation strategies, making it a subject of ongoing study in space situational awareness.

Loading next visibility...
Identifier
33920, 1993-036DZ
Orbit
LEO
Country
Flag of CISCIS
Related business
Manufacturer
Unknown
Mission
Spacecraft
Bus & Motor
Unknown
Mass
Unknown
Launch date (UTC)
1993-06-16 (32 years ago)
Launch vehicle
Unknown
Launch site
Plesetsk Missile And Space Complex (PKMTR)
Object type
Payload
Rocket body
Debris
Shape & HBR
Unknown shape, 0.1 m
Radar Cross Section
Small (<0.1 m²)

Expand to show TLE details & history
Last TLE update: 1 day ago

TLE from 1 day ago
0 COSMOS 2251 DEB
1 33920U 93036DZ  25295.36703779  .00009806  00000-0  21587-2 0  9991
2 33920  74.0637  35.9420 0036816  57.3285 303.1421 14.57116132873668
Epoch: 2025-10-22T08:48Z
TLE epoch observation values (Epoch: 2025-10-22T08:48:32.065Z)
Latitude
-0.00005°
Longitude
-127.23328°
Altitude
690.953 km
Speed
7.519 km/s
True Right ascension
02h 23m 46s
True Declination
0° 00' 00"
Sunlit
Object was in full shadow at epoch
Visualization orbit readout
Latitude
Unknown
Longitude
Unknown
Altitude
Unknown
Speed
Unknown
Apparent Right ascension
Unknown
Apparent Declination
Unknown
Sunlit
N/A
Visualization observer readout
Local Sidereal Time
14:47:23
Azimuth
Unknown
Elevation
Unknown
Doppler factor
Unknown
Orbital elements
Apogee altitude
726.159 km
Perigee altitude
674.04 km
Semi-major axis
7,078.236 km
Eccentricity
0.00368
Inclination
74.0637°
RAAN
35.942°
Arg. of periapsis
57.3285°
True anomaly
302.78796°
Mean anomaly
303.1421°
Eccentric anomaly
302.96512°
Mean motion
3.64465 °/min
Orbital period
98.77 mins
BSTAR
0.0021587

Documentation

Showing up to 5 results
|